• In Uzbekistan
  • List of Countries
  • For 7 days
  • Water Temperature
  • Satellite Maps
  • Weather Map
  • Weather Widgets
  • user-avatar
    Login

    Hourly Weather Mikolajowice

    Today, 17 January, Thursday

    Time Temperature Precipitation Wind Pressure Humidity
    00:00 0°C° 0 mm 3 mps 739 mmHg 88%
    01:00 0°C° 0 mm 3 mps 738 mmHg 88%
    02:00 0°C° 0 mm 3 mps 738 mmHg 87%
    03:00 0°C° 0 mm 3 mps 738 mmHg 86%
    04:00 0°C° 0 mm 3 mps 737 mmHg 85%
    05:00 -1°C° 0 mm 4 mps 737 mmHg 84%
    06:00 -1°C° 0 mm 4 mps 737 mmHg 83%
    07:00 -2°C° 0 mm 4 mps 737 mmHg 84%
    08:00 -1°C° 0 mm 4 mps 737 mmHg 82%
    09:00 0°C° 0 mm 4 mps 737 mmHg 80%
    10:00 +1°C° 0 mm 4 mps 737 mmHg 78%
    11:00 +1°C° 0 mm 4 mps 737 mmHg 81%
    12:00 +3°C° 0 mm 3 mps 737 mmHg 84%
    13:00 +3°C° 0 mm 3 mps 737 mmHg 87%
    14:00 +3°C° 0 mm 3 mps 737 mmHg 87%
    15:00 +2°C° 0 mm 3 mps 737 mmHg 87%
    16:00 +1°C° 0 mm 3 mps 737 mmHg 87%
    17:00 +1°C° 0 mm 3 mps 737 mmHg 87%
    18:00 +1°C° 0 mm 3 mps 737 mmHg 87%
    19:00 0°C° 0 mm 3 mps 737 mmHg 87%
    20:00 +1°C° 0 mm 3 mps 737 mmHg 86%
    21:00 +1°C° 0 mm 3 mps 737 mmHg 85%
    22:00 +1°C° 0 mm 3 mps 737 mmHg 85%
    23:00 +1°C° 0 mm 3 mps 737 mmHg 85%

    Tomorrow, 18 January, Friday

    Time Temperature Precipitation Wind Pressure Humidity
    00:00 +1°C° 0 mm 3 mps 737 mmHg 85%
    01:00 +1°C° 0 mm 3 mps 737 mmHg 85%
    02:00 +1°C° 0 mm 3 mps 737 mmHg 86%
    03:00 +1°C° 0 mm 3 mps 737 mmHg 86%
    04:00 +1°C° 0 mm 4 mps 737 mmHg 86%
    05:00 0°C° 0.1 mm 4 mps 737 mmHg 85%
    06:00 0°C° 0.1 mm 4 mps 738 mmHg 85%
    07:00 0°C° 0.1 mm 4 mps 738 mmHg 84%
    08:00 0°C° 0 mm 5 mps 739 mmHg 84%
    09:00 0°C° 0 mm 5 mps 739 mmHg 83%
    10:00 0°C° 0 mm 5 mps 740 mmHg 83%
    11:00 0°C° 0 mm 5 mps 740 mmHg 81%
    12:00 0°C° 0 mm 5 mps 741 mmHg 79%
    13:00 -1°C° 0 mm 5 mps 742 mmHg 78%
    14:00 -1°C° 0 mm 5 mps 742 mmHg 78%
    15:00 -2°C° 0 mm 4 mps 743 mmHg 79%
    16:00 -3°C° 0 mm 4 mps 743 mmHg 79%
    17:00 -3°C° 0 mm 4 mps 744 mmHg 80%
    18:00 -3°C° 0 mm 4 mps 745 mmHg 81%
    19:00 -4°C° 0 mm 4 mps 745 mmHg 82%
    20:00 -4°C° 0 mm 3 mps 746 mmHg 83%
    21:00 -4°C° 0 mm 3 mps 746 mmHg 84%
    22:00 -4°C° 0 mm 3 mps 747 mmHg 85%
    23:00 -5°C° 0 mm 3 mps 747 mmHg 86%

    Day after tomorrow, 19 January, Saturday

    Time Temperature Precipitation Wind Pressure Humidity
    00:00 -5°C° 0 mm 3 mps 748 mmHg 87%
    01:00 -4°C° 0 mm 2 mps 748 mmHg 87%
    02:00 -4°C° 0 mm 2 mps 748 mmHg 87%
    03:00 -4°C° 0 mm 2 mps 748 mmHg 87%
    04:00 -5°C° 0 mm 2 mps 748 mmHg 87%
    05:00 -5°C° 0 mm 2 mps 748 mmHg 86%
    06:00 -5°C° 0 mm 2 mps 749 mmHg 85%
    07:00 -5°C° 0 mm 2 mps 749 mmHg 84%
    08:00 -2°C° 0 mm 1 mps 749 mmHg 81%
    09:00 -2°C° 0 mm 1 mps 749 mmHg 77%
    10:00 -1°C° 0 mm 1 mps 749 mmHg 73%
    11:00 -1°C° 0 mm 1 mps 749 mmHg 70%
    12:00 0°C° 0 mm 1 mps 749 mmHg 67%
    13:00 +1°C° 0 mm 1 mps 748 mmHg 63%
    14:00 0°C° 0 mm 1 mps 748 mmHg 68%
    15:00 -1°C° 0 mm 1 mps 748 mmHg 72%
    16:00 -1°C° 0 mm 1 mps 748 mmHg 76%
    17:00 -1°C° 0 mm 1 mps 748 mmHg 77%
    18:00 -2°C° 0 mm 1 mps 748 mmHg 79%
    19:00 -4°C° 0 mm 2 mps 748 mmHg 81%
    20:00 -4°C° 0 mm 2 mps 748 mmHg 81%
    21:00 -5°C° 0 mm 2 mps 748 mmHg 81%
    22:00 -5°C° 0 mm 2 mps 748 mmHg 81%
    23:00 -5°C° 0 mm 2 mps 747 mmHg 80%

    20 January, Sunday

    Time Temperature Precipitation Wind Pressure Humidity
    00:00 -3°C° 0 mm 1 mps 747 mmHg 80%
    01:00 -3°C° 0 mm 1 mps 747 mmHg 79%
    02:00 -3°C° 0 mm 1 mps 746 mmHg 78%
    03:00 -4°C° 0 mm 1 mps 746 mmHg 78%
    04:00 -4°C° 0 mm 1 mps 745 mmHg 77%
    05:00 -4°C° 0 mm 1 mps 745 mmHg 76%
    06:00 -5°C° 0 mm 0 mps 745 mmHg 75%
    07:00 -4°C° 0 mm 0 mps 745 mmHg 74%
    08:00 -4°C° 0 mm 0 mps 745 mmHg 70%
    09:00 -3°C° 0 mm 0 mps 745 mmHg 67%
    10:00 -3°C° 0 mm 0 mps 745 mmHg 64%
    11:00 -2°C° 0 mm 1 mps 745 mmHg 62%
    12:00 -1°C° 0 mm 1 mps 745 mmHg 61%
    13:00 -1°C° 0 mm 1 mps 744 mmHg 59%
    14:00 -1°C° 0 mm 1 mps 744 mmHg 62%
    15:00 -1°C° 0 mm 1 mps 744 mmHg 66%
    16:00 -1°C° 0 mm 1 mps 744 mmHg 69%
    17:00 -1°C° 0 mm 1 mps 745 mmHg 71%
    18:00 -1°C° 0 mm 1 mps 745 mmHg 73%
    19:00 -2°C° 0 mm 1 mps 745 mmHg 75%
    20:00 -2°C° 0 mm 1 mps 746 mmHg 77%
    21:00 -2°C° 0 mm 1 mps 746 mmHg 79%
    22:00 -2°C° 0 mm 1 mps 746 mmHg 81%
    23:00 -2°C° 0 mm 1 mps 746 mmHg 81%

    21 January, Monday

    Time Temperature Precipitation Wind Pressure Humidity
    00:00 -3°C° 0 mm 1 mps 747 mmHg 82%
    01:00 -3°C° 0 mm 1 mps 747 mmHg 82%
    02:00 -3°C° 0 mm 1 mps 747 mmHg 82%
    03:00 -3°C° 0 mm 1 mps 747 mmHg 82%
    04:00 -4°C° 0 mm 1 mps 747 mmHg 82%
    05:00 -6°C° 0 mm 2 mps 748 mmHg 82%
    06:00 -6°C° 0 mm 2 mps 748 mmHg 82%
    07:00 -6°C° 0 mm 2 mps 748 mmHg 83%
    08:00 -5°C° 0 mm 2 mps 749 mmHg 82%
    09:00 -5°C° 0 mm 2 mps 749 mmHg 81%
    10:00 -4°C° 0 mm 2 mps 749 mmHg 80%
    11:00 -3°C° 0 mm 2 mps 749 mmHg 80%
    12:00 -3°C° 0 mm 2 mps 749 mmHg 80%
    13:00 -2°C° 0 mm 2 mps 749 mmHg 80%
    14:00 -1°C° 0 mm 1 mps 749 mmHg 83%
    15:00 -1°C° 0 mm 1 mps 749 mmHg 85%
    16:00 -2°C° 0 mm 0 mps 748 mmHg 87%
    17:00 -2°C° 0 mm 0 mps 749 mmHg 88%
    18:00 -2°C° 0 mm 1 mps 749 mmHg 89%
    19:00 -2°C° 0 mm 1 mps 749 mmHg 90%
    20:00 -2°C° 0 mm 1 mps 749 mmHg 90%
    21:00 -2°C° 0 mm 1 mps 749 mmHg 89%
    22:00 -5°C° 0 mm 2 mps 749 mmHg 89%
    23:00 -3°C° 0 mm 1 mps 748 mmHg 89%

    22 January, Tuesday

    Time Temperature Precipitation Wind Pressure Humidity
    00:00 -3°C° 0 mm 1 mps 748 mmHg 89%
    01:00 -4°C° 0 mm 1 mps 748 mmHg 89%
    02:00 -4°C° 0 mm 1 mps 747 mmHg 89%
    03:00 -4°C° 0 mm 1 mps 747 mmHg 89%
    04:00 -4°C° 0 mm 1 mps 746 mmHg 88%
    05:00 -6°C° 0 mm 1 mps 746 mmHg 88%
    06:00 -6°C° 0 mm 1 mps 746 mmHg 88%
    07:00 -6°C° 0 mm 1 mps 745 mmHg 88%
    08:00 -6°C° 0 mm 1 mps 745 mmHg 85%
    09:00 -4°C° 0 mm 1 mps 745 mmHg 81%
    10:00 -3°C° 0 mm 1 mps 744 mmHg 78%
    11:00 -5°C° 0 mm 2 mps 743 mmHg 78%
    12:00 -4°C° 0 mm 2 mps 743 mmHg 77%
    13:00 -4°C° 0 mm 2 mps 742 mmHg 76%
    14:00 -4°C° 0 mm 2 mps 741 mmHg 80%
    15:00 -5°C° 0 mm 3 mps 741 mmHg 83%
    16:00 -5°C° 0 mm 3 mps 740 mmHg 87%
    17:00 -6°C° 0.3 mm 3 mps 740 mmHg 88%
    18:00 -5°C° 0.3 mm 2 mps 740 mmHg 90%
    19:00 -5°C° 0.3 mm 2 mps 739 mmHg 92%
    20:00 -5°C° 0.1 mm 2 mps 739 mmHg 92%
    21:00 -5°C° 0.1 mm 2 mps 739 mmHg 92%
    22:00 -3°C° 0.1 mm 1 mps 739 mmHg 92%
    23:00 -3°C° 0.1 mm 1 mps 739 mmHg 92%
    Show more